Change the Weather History Date:

Tuesday, August 21, 2012

  Actual Average Record
Temperature  
Mean Temperature 80 °F -  
Max Temperature 89 °F 85 °F 91 °F (2005)
Min Temperature 73 °F 75 °F 73 °F (1998)
Cooling Degree Days 16    
Growing Degree Days 30 (Base 50)    
Moisture  
Dew Point 73 °F    
Average Humidity 87    
Maximum Humidity 96    
Minimum Humidity 65    
Precipitation  
Precipitation 1.38 in - - ()
Sea Level Pressure  
Sea Level Pressure 30.06 in    
Wind  
Wind Speed 9 mph (NW)    
Max Wind Speed 24 mph    
Max Gust Speed 43 mph    
Visibility 8 miles    
Events Fog , Rain , Thunderstorm    
Averages and records for this station are not official NWS values.
T = Trace of Precipitation, MM = Missing Value Source: NWS Daily Summary

Daily Weather History Graph

Daily Weather History Graph

Search for Another Location

Airport or City:

Trip Planner

Search our weather history database for the weather conditions in past years. The results will help you decide how hot, cold, wet, or windy it might be!

Date:

Astronomy

Aug. 21, 2012 Rise Set
Actual Time 6:55 AM EDT 7:54 PM EDT
Civil Twilight 6:31 AM EDT 8:19 PM EDT
Nautical Twilight 6:02 AM EDT 8:47 PM EDT
Astronomical Twilight 5:32 AM EDT 9:17 PM EDT
Moon 10:54 AM EDT (8/21) 10:25 PM EDT (8/21)
Length of Visible Light 13h 47m
Length of Day
12h 59m
Waxing Crescent, 19% of the Moon is Illuminated
Aug 21
Waxing Crescent
Aug 24
First Quarter
Aug 31
Full
Sep 8
Last Quarter
Sep 15
New

Hourly Weather History & Observations

Time (EDT) Temp. Heat Index Dew Point Humidity Pressure Visibility Wind Dir Wind Speed Gust Speed Precip Events Conditions
12:55 AM 78.3 °F - 75.6 °F 91% 30.03 in 10.0 mi Calm Calm - N/A   Clear
1:07 AM 78.8 °F - 77.0 °F 94% 30.04 in 10.0 mi North 3.5 mph - N/A   Mostly Cloudy
1:16 AM 78.8 °F - 75.2 °F 89% 30.03 in 10.0 mi NW 3.5 mph - N/A   Scattered Clouds
1:31 AM 78.8 °F - 75.2 °F 89% 30.04 in 10.0 mi WNW 12.7 mph 20.7 mph N/A   Mostly Cloudy
1:47 AM 78.8 °F - 73.4 °F 83% 30.02 in 10.0 mi North 6.9 mph - N/A   Scattered Clouds
1:55 AM 78.1 °F - 73.4 °F 85% 30.02 in 10.0 mi North 6.9 mph - N/A   Scattered Clouds
2:55 AM 75.9 °F - 73.4 °F 92% 29.99 in 10.0 mi SE 6.9 mph - N/A   Clear
3:55 AM 76.8 °F - 75.4 °F 95% 29.98 in 10.0 mi SSE 6.9 mph - N/A   Clear
4:55 AM 76.1 °F - 74.7 °F 95% 29.98 in 10.0 mi South 6.9 mph - N/A   Clear
5:55 AM 75.4 °F - 74.1 °F 96% 29.99 in 10.0 mi South 4.6 mph - N/A   Clear
6:55 AM 77.2 °F - 74.1 °F 90% 30.03 in 10.0 mi SSW 9.2 mph - N/A   Clear
7:55 AM 79.0 °F - 73.6 °F 83% 30.04 in 10.0 mi SSW 9.2 mph - N/A   Clear
8:55 AM 81.7 °F 87.8 °F 74.7 °F 79% 30.04 in 10.0 mi SSW 11.5 mph - N/A   Clear
9:55 AM 84.7 °F 94.0 °F 75.9 °F 75% 30.03 in 10.0 mi South 12.7 mph - N/A   Clear
10:55 AM 88.0 °F 98.0 °F 75.6 °F 66% 30.02 in 10.0 mi South 13.8 mph - N/A   Clear
11:55 AM 84.2 °F 94.5 °F 77.4 °F 80% 30.01 in 10.0 mi SE 11.5 mph - N/A   Clear
12:55 PM 84.0 °F 94.8 °F 77.9 °F 82% 30.00 in 10.0 mi SSE 12.7 mph - N/A   Clear
1:55 PM 85.5 °F 97.7 °F 78.3 °F 79% 30.00 in 10.0 mi SSE 15.0 mph - N/A   Clear
2:55 PM 83.5 °F 93.3 °F 77.5 °F 82% 29.99 in 10.0 mi SSE 16.1 mph - N/A Thunderstorm Scattered Clouds
3:04 PM 82.4 °F 89.5 °F 75.2 °F 79% 29.98 in 10.0 mi SSE 18.4 mph - N/A Thunderstorm Thunderstorm
3:19 PM 84.2 °F 90.9 °F 73.4 °F 70% 29.98 in 10.0 mi SSE 21.9 mph 28.8 mph N/A Thunderstorm Partly Cloudy
3:55 PM 85.5 °F 91.8 °F 72.5 °F 65% 29.99 in 10.0 mi SSE 15.0 mph 23.0 mph N/A   Partly Cloudy
3:59 PM 84.2 °F 90.9 °F 73.4 °F 70% 30.00 in 10.0 mi SSE 10.4 mph 21.9 mph N/A Thunderstorm Thunderstorm
4:06 PM 84.2 °F 90.9 °F 73.4 °F 70% 30.01 in 5.0 mi West 11.5 mph 21.9 mph N/A Rain , Thunderstorm Thunderstorms and Rain
4:37 PM 78.8 °F - 73.4 °F 83% 30.03 in 10.0 mi NNE 16.1 mph - N/A Rain , Thunderstorm Light Thunderstorms and Rain
4:55 PM 79.0 °F - 72.0 °F 79% 30.03 in 10.0 mi NNE 3.5 mph - 0.03 in Rain , Thunderstorm Light Thunderstorms and Rain
5:01 PM 80.6 °F 86.2 °F 75.2 °F 84% 30.02 in 10.0 mi East 5.8 mph - N/A Thunderstorm Thunderstorm
5:07 PM 80.6 °F 85.4 °F 73.4 °F 79% 30.04 in 10.0 mi NW 17.3 mph 25.3 mph N/A Rain , Thunderstorm Light Thunderstorms and Rain
5:14 PM 78.8 °F - 73.4 °F 83% 30.04 in 2.5 mi NNW 24.2 mph 42.6 mph N/A Rain , Thunderstorm Heavy Thunderstorms and Rain
5:18 PM 77.0 °F - 73.4 °F 89% 30.06 in 1.8 mi NNW 16.1 mph 42.6 mph N/A Rain , Thunderstorm Heavy Thunderstorms and Rain
5:19 PM 77.0 °F - 73.4 °F 89% 30.07 in 1.8 mi NNW 19.6 mph 42.6 mph N/A Rain , Thunderstorm Light Thunderstorms and Rain
5:23 PM 77.0 °F - 73.4 °F 89% 30.12 in 2.0 mi WNW 17.3 mph 34.5 mph N/A Rain , Thunderstorm Light Thunderstorms and Rain
5:24 PM 77.0 °F - 73.4 °F 89% 30.12 in 1.8 mi WNW 18.4 mph 34.5 mph N/A Rain , Thunderstorm Light Thunderstorms and Rain
5:29 PM 75.2 °F - 73.4 °F 94% 30.11 in 0.2 mi West 9.2 mph 28.8 mph N/A Fog , Rain , Thunderstorm Heavy Thunderstorms and Rain
5:30 PM 75.2 °F - 73.4 °F 94% 30.10 in 0.2 mi NW 10.4 mph 19.6 mph N/A Fog , Rain , Thunderstorm Heavy Thunderstorms and Rain
5:34 PM 75.2 °F - 73.4 °F 94% 30.09 in 0.2 mi NNW 19.6 mph 23.0 mph N/A Fog , Rain , Thunderstorm Heavy Thunderstorms and Rain
5:40 PM 75.2 °F - 73.4 °F 94% 30.09 in 0.2 mi NNW 17.3 mph 23.0 mph N/A Fog , Rain , Thunderstorm Heavy Thunderstorms and Rain
5:43 PM 73.4 °F - 71.6 °F 94% 30.09 in 0.5 mi NNW 15.0 mph - N/A Fog , Rain , Thunderstorm Heavy Thunderstorms and Rain
5:55 PM 74.3 °F - 72.5 °F 94% 30.08 in 1.5 mi North 12.7 mph - 1.20 in Rain , Thunderstorm Thunderstorms and Rain
6:08 PM 73.4 °F - 71.6 °F 94% 30.06 in 10.0 mi North 12.7 mph 21.9 mph N/A Rain , Thunderstorm Light Thunderstorms and Rain
6:10 PM 73.4 °F - 71.6 °F 94% 30.06 in 10.0 mi North 11.5 mph - N/A Rain , Thunderstorm Light Rain
6:25 PM 75.2 °F - 71.6 °F 89% 30.06 in 10.0 mi North 13.8 mph - N/A   Partly Cloudy
6:46 PM 75.2 °F - 71.6 °F 89% 30.07 in 10.0 mi North 11.5 mph - N/A Rain Light Rain
6:55 PM 74.3 °F - 72.1 °F 93% 30.08 in 10.0 mi North 9.2 mph - 0.01 in Rain Light Rain
7:00 PM 75.2 °F - 71.6 °F 89% 30.09 in 10.0 mi NE 5.8 mph - N/A   Partly Cloudy
7:14 PM 75.2 °F - 71.6 °F 89% 30.10 in 10.0 mi ESE 5.8 mph - N/A   Light Drizzle
7:24 PM 75.2 °F - 71.6 °F 89% 30.11 in 10.0 mi East 5.8 mph - N/A   Mostly Cloudy
7:55 PM 74.5 °F - 71.8 °F 91% 30.12 in 10.0 mi ESE 8.1 mph - 0.02 in Rain , Thunderstorm Light Rain
7:58 PM 73.4 °F - 69.8 °F 88% 30.12 in 8.0 mi East 8.1 mph - N/A Rain , Thunderstorm Light Rain
8:07 PM 73.4 °F - 69.8 °F 88% 30.12 in 9.0 mi East 8.1 mph - N/A Rain Light Rain
8:16 PM 73.4 °F - 69.8 °F 88% 30.12 in 9.0 mi East 5.8 mph - N/A Rain Light Rain
8:30 PM 73.4 °F - 69.8 °F 88% 30.12 in 10.0 mi ESE 4.6 mph - N/A Rain Light Rain
8:55 PM 73.8 °F - 71.4 °F 92% 30.11 in 10.0 mi ESE 8.1 mph - 0.07 in   Light Drizzle
9:44 PM 73.4 °F - 71.6 °F 94% 30.11 in 10.0 mi SW 3.5 mph - N/A   Clear
9:55 PM 73.6 °F - 71.8 °F 94% 30.11 in 10.0 mi WSW 5.8 mph - 0.05 in   Light Drizzle
10:02 PM 73.4 °F - 71.6 °F 94% 30.10 in 10.0 mi West 5.8 mph - N/A   Clear
10:55 PM 74.3 °F - 72.0 °F 92% 30.09 in 10.0 mi West 3.5 mph - 0.00 in   Clear
11:05 PM 75.2 °F - 71.6 °F 89% 30.09 in 10.0 mi WNW 4.6 mph - N/A   Clear
11:39 PM 75.2 °F - 71.6 °F 89% 30.10 in 10.0 mi WSW 4.6 mph - N/A   Light Drizzle
11:55 PM 75.2 °F - 72.7 °F 92% 30.10 in 10.0 mi SSW 3.5 mph - 0.00 in   Clear
11:58 PM 75.2 °F - 71.6 °F 89% 30.10 in 10.0 mi SW 3.5 mph - N/A   Light Drizzle